Location: Dompnac
(44.5644°N, 4.1026°E)
Time: 11:42:47
(UTC+00:00)

H-2A R/B - Pass Details

Date: 19 September 2020
Orbit: 734 x 836 km, 98.2° (Epoch: 29 October)

Event Time Altitude Azimuth Distance (km) Brightness Sun altitude
Rises 18:41:33 0° 162° (SSE) 3,157 4.9 -10.6°
Reaches altitude 10° 18:43:48 10° 162° (SSE) 2,246 4.1 -11.0°
Maximum altitude 18:48:44 83° 76° (ENE) 764 1.9 -11.9°
Drops below altitude 10° 18:53:50 10° 348° (NNW) 2,313 4.8 -12.8°
Sets 18:56:10 0° 348° (NNW) 3,259 5.6 -13.2°
